Location: Tucson
(32.2217°N, 110.9265°W)
Time: 02:28:14
(UTC-07:00)

Tiros 1 - Pass Details

Date: 26 October 2021
Orbit: 630 x 663 km, 48.4° (Epoch: 07 December)

Event Time Altitude Azimuth Distance (km) Brightness Sun altitude
Rises 10:59:43 0° 284° (WNW) 2,982 10.3 42.2°
Reaches altitude 10° 11:03:03 10° 308° (NW) 2,066 9.5 42.5°
Maximum altitude 11:05:47 15° 343° (NNW) 1,751 9.1 42.7°
Drops below altitude 10° 11:08:30 10° 18° (NNE) 2,057 9.5 42.9°
Sets 11:11:49 0° 42° (NE) 2,961 10.3 43.1°
